FW7173 Weather Reports


Display with metric or nautical units.
time (UTC)temp
F
wind
direction
speed
MPH
gust
MPH
rain 1hr
in
rain 24hr
in
rain mn
in
humidity
%
barometer
mb
20260506172306 60 171 10.0 14.0 0.07 0.22 0.22 93 1008.9
20260506171800 60 111 7.0 10.0 0.00 0.20 0.20 93 1009.1
20260506171257 60 168 0.0 5.0 0.02 0.20 0.20 93 1008.8
20260506170755 59 152 7.0 14.0 0.02 0.20 0.20 93 1009.0
20260506170251 59 153 5.0 11.0 0.00 0.20 0.20 94 1009.2
20260506165750 59 137 5.0 11.0 0.02 0.20 0.20 94 1009.0
20260506165247 59 161 4.0 5.0 0.07 0.20 0.20 94 1009.0
20260506164743 59 198 5.0 6.0 0.07 0.20 0.20 94 1009.0
20260506164240 59 132 2.0 11.0 0.07 0.19 0.19 94 1008.9
20260506163737 59 104 4.0 9.0 0.12 0.18 0.18 94 1008.9
20260506163232 59 185 6.0 7.0 0.07 0.17 0.17 93 1008.5
20260506162728 59 183 8.0 13.0 0.05 0.17 0.17 93 1008.9
20260506162226 60 178 8.0 9.0 0.05 0.16 0.16 93 1009.1
20260506161723 60 139 3.0 12.0 0.12 0.16 0.16 93 1009.3
20260506161220 60 167 5.0 5.0 0.12 0.15 0.15 93 1009.4
20260506160718 60 138 4.0 6.0 0.09 0.14 0.14 93 1009.7
20260506160214 60 148 4.0 7.0 0.05 0.13 0.13 93 1010.0
20260506155713 60 176 3.0 4.0 0.02 0.12 0.12 92 1010.1
20260506155210 60 177 4.0 8.0 0.05 0.11 0.11 92 1010.1
20260506153311 60 135 4.0 7.0 0.07 0.09 0.09 90 1010.4
20260506152808 61 167 3.0 11.0 0.05 0.08 0.08 89 1010.6
20260506152306 61 172 4.0 8.0 0.05 0.07 0.07 89 1010.4
20260506151804 61 172 3.0 6.0 0.05 0.07 0.07 89 1010.2
20260506151301 61 86 2.0 6.0 0.07 0.07 0.07 88 1009.9
20260506150757 61 130 2.0 4.0 0.09 0.06 0.06 88 1010.0
20260506150303 61 133 2.0 4.0 0.07 0.06 0.06 86 1010.0
20260506145751 61 219 2.0 4.0 0.07 0.05 0.05 86 1010.1
20260506145248 62 143 3.0 4.0 0.09 0.04 0.04 84 1010.1
20260506144745 62 143 2.0 6.0 0.12 0.04 0.04 82 1010.2
20260506144242 62 173 9.0 11.0 0.09 0.03 0.03 81 1010.3
20260506143740 63 127 6.0 9.0 0.07 0.02 0.02 79 1010.5
20260506143237 63 203 1.0 19.0 0.05 0.01 0.01 77 1010.4
20260506142735 64 160 3.0 16.0 0.02 0.01 0.01 75 1010.4
20260506142233 64 177 6.0 15.0 0.00 0.00 0.00 73 1010.3
20260506141731 64 162 8.0 9.0 0.00 0.00 0.00 73 1010.2
20260506141229 65 148 9.0 12.0 0.00 0.00 0.00 73 1010.2
20260506140726 64 165 4.0 9.0 0.00 0.00 0.00 74 1010.2
20260506140223 64 350 3.0 6.0 0.00 0.00 0.00 74 1010.0
20260506135720 64 198 2.0 3.0 0.02 0.00 0.00 74 1009.9
20260506135216 64 159 5.0 5.0 0.02 0.00 0.00 75 1009.9
20260506134713 64 204 3.0 4.0 0.00 0.00 0.00 74 1010.2
20260506134209 64 173 4.0 6.0 0.00 0.00 0.00 74 1010.4
20260506133707 64 242 2.0 7.0 0.00 0.00 0.00 74 1010.2
20260506133203 64 170 4.0 7.0 0.00 0.00 0.00 74 1010.2
20260506132700 64 148 7.0 8.0 0.00 0.00 0.00 74 1010.2
20260506132157 64 170 3.0 9.0 0.00 0.00 0.00 74 1010.5
20260506131655 64 169 11.0 11.0 0.00 0.00 0.00 74 1010.2
20260506131151 64 224 3.0 6.0 0.00 0.00 0.00 74 1010.5
20260506130648 64 166 9.0 14.0 0.00 0.00 0.00 74 1010.4
20260506130145 64 172 7.0 14.0 0.00 0.00 0.00 73 1010.4
20260506125643 64 210 4.0 11.0 0.00 0.00 0.00 74 1010.4
20260506125141 64 159 8.0 8.0 0.00 0.00 0.00 74 1010.5
20260506124638 64 171 7.0 14.0 0.00 0.00 0.00 74 1010.3
20260506124136 64 231 1.0 12.0 0.00 0.00 0.00 74 1010.4
20260506123633 64 193 5.0 7.0 0.00 0.00 0.00 75 1010.2
20260506123132 64 121 4.0 7.0 0.00 0.00 0.00 74 1010.1
20260506122628 63 178 6.0 7.0 0.00 0.00 0.00 75 1009.9
20260506122126 63 166 9.0 11.0 0.00 0.00 0.00 75 1010.2
20260506121624 63 267 2.0 5.0 0.00 0.00 0.00 75 1010.4
20260506121120 63 259 2.0 7.0 0.00 0.00 0.00 75 1010.1
20260506120618 63 145 6.0 11.0 0.00 0.00 0.00 75 1010.4
20260506120115 63 168 8.0 9.0 0.00 0.00 0.00 75 1010.2
20260506115613 63 164 4.0 7.0 0.00 0.00 0.00 75 1010.2
20260506115111 63 158 9.0 10.0 0.00 0.00 0.00 75 1010.2
20260506114608 63 151 4.0 7.0 0.00 0.00 0.00 75 1010.1
20260506114106 63 186 2.0 8.0 0.00 0.00 0.00 76 1010.1
20260506113604 63 140 3.0 6.0 0.00 0.00 0.00 76 1010.2
20260506113101 63 172 9.0 10.0 0.00 0.00 0.00 76 1009.9
20260506112557 63 136 7.0 8.0 0.00 0.00 0.00 76 1010.2
20260506112055 63 141 6.0 8.0 0.00 0.00 0.00 76 1010.5
20260506111553 63 173 7.0 7.0 0.00 0.00 0.00 77 1010.2
20260506111050 63 156 3.0 6.0 0.00 0.00 0.00 77 1010.1
20260506110547 63 140 5.0 10.0 0.00 0.00 0.00 77 1010.1
20260506110044 63 179 2.0 6.0 0.00 0.00 0.00 76 1010.2
20260506105540 63 182 5.0 10.0 0.00 0.00 0.00 76 1009.9
20260506105038 63 123 4.0 7.0 0.00 0.00 0.00 76 1009.9
20260506104536 63 199 4.0 8.0 0.00 0.00 0.00 77 1009.8
20260506104033 63 100 4.0 10.0 0.00 0.00 0.00 77 1009.7
20260506103531 63 116 4.0 10.0 0.00 0.00 0.00 76 1009.7
20260506103027 63 169 5.0 7.0 0.00 0.00 0.00 76 1009.4
20260506102526 63 118 4.0 9.0 0.00 0.00 0.00 76 1009.7
20260506102023 63 113 4.0 7.0 0.00 0.00 0.00 77 1009.7
20260506101519 63 122 4.0 8.0 0.00 0.00 0.00 77 1009.5
20260506101016 63 167 7.0 8.0 0.00 0.00 0.00 76 1009.7
20260506100515 63 180 5.0 6.0 0.00 0.00 0.00 77 1009.9
20260506100013 63 100 6.0 6.0 0.00 0.00 0.00 77 1009.9
20260506095511 63 179 5.0 9.0 0.00 0.00 0.00 77 1010.0
20260506095006 63 241 2.0 8.0 0.00 0.00 0.00 77 1009.9
20260506094505 63 150 5.0 12.0 0.00 0.00 0.00 76 1009.9
20260506094002 63 170 3.0 6.0 0.00 0.00 0.00 77 1009.8
20260506093501 63 139 4.0 6.0 0.00 0.00 0.00 77 1009.9
20260506092958 63 140 5.0 6.0 0.00 0.00 0.00 77 1009.9
20260506092455 63 154 5.0 7.0 0.00 0.00 0.00 77 1009.8
20260506091952 63 148 5.0 6.0 0.00 0.00 0.00 77 1009.8
20260506091450 63 163 4.0 7.0 0.00 0.00 0.00 76 1009.7
20260506090947 63 161 6.0 8.0 0.00 0.00 0.00 77 1009.7
20260506090445 63 132 3.0 5.0 0.00 0.00 0.00 76 1009.5
20260506085941 63 151 4.0 7.0 0.00 0.00 0.00 76 1009.9
20260506085438 63 170 5.0 6.0 0.00 0.00 0.00 76 1009.9
20260506084934 63 149 5.0 6.0 0.00 0.00 0.00 75 1010.0
20260506084431 63 142 4.0 6.0 0.00 0.00 0.00 75 1009.8
20260506083927 63 158 5.0 6.0 0.00 0.00 0.00 75 1009.9
20260506083425 63 77 6.0 8.0 0.00 0.00 0.00 74 1009.8
20260506082922 63 161 4.0 6.0 0.00 0.00 0.00 74 1009.8
20260506082419 63 153 4.0 5.0 0.00 0.00 0.00 74 1009.9
20260506081914 63 172 4.0 4.0 0.00 0.00 0.00 74 1009.8
20260506081413 63 131 4.0 6.0 0.00 0.00 0.00 73 1010.1
20260506080910 63 154 6.0 7.0 0.00 0.00 0.00 73 1009.9
20260506080407 63 132 5.0 7.0 0.00 0.00 0.00 72 1009.9
20260506073351 64 98 3.0 6.0 0.00 0.00 0.00 68 1009.9
20260506072847 65 150 5.0 5.0 0.00 0.00 0.00 67 1010.1
20260506072345 65 154 3.0 8.0 0.00 0.00 0.00 67 1010.2
20260506071843 65 166 7.0 8.0 0.00 0.00 0.00 67 1010.2
20260506071341 65 176 5.0 7.0 0.00 0.00 0.00 67 1010.3
20260506070837 65 166 2.0 4.0 0.00 0.00 0.00 66 1010.3
20260506070334 65 269 2.0 7.0 0.00 0.00 0.00 66 1010.3
20260506062312 65 150 4.0 6.0 0.00 0.00 0.00 63 1010.6
20260506061807 65 147 5.0 7.0 0.00 0.00 0.00 63 1010.5
20260506061304 65 159 3.0 5.0 0.00 0.00 0.00 63 1010.6
20260506060803 66 156 4.0 6.0 0.00 0.00 0.00 62 1010.7
20260506060300 66 168 4.0 5.0 0.00 0.00 0.00 62 1010.6
20260506051232 66 209 1.0 13.0 0.00 0.00 0.00 60 1011.3
20260506050730 66 70 3.0 4.0 0.00 0.00 0.00 61 1011.2
20260506050227 66 200 2.0 8.0 0.00 0.00 0.00 60 1011.2
20260506044718 66 156 5.0 5.0 0.00 0.00 0.00 60 1011.2
20260506044215 66 168 6.0 8.0 0.00 0.00 0.00 60 1011.1
20260506043712 66 103 2.0 4.0 0.00 0.00 0.00 60 1011.2
20260506043210 66 147 1.0 4.0 0.00 0.00 0.00 60 1011.3
20260506042709 66 280 0.0 6.0 0.00 0.00 0.00 60 1011.1
20260506042206 67 155 4.0 5.0 0.00 0.00 0.00 60 1011.2
20260506041704 67 185 2.0 4.0 0.00 0.00 0.00 59 1011.1
20260506041201 67 132 4.0 6.0 0.00 0.00 0.00 59 1011.2
20260506040659 67 131 4.0 5.0 0.00 0.00 0.00 59 1011.4
20260506040155 67 192 2.0 3.0 0.00 0.00 0.00 59 1011.3
20260506035652 67 156 3.0 4.0 0.00 0.05 0.05 59 1011.4
20260506035149 67 173 2.0 10.0 0.00 0.05 0.05 58 1011.4
20260506034646 67 241 4.0 8.0 0.00 0.05 0.05 58 1011.3
20260506034143 68 150 4.0 9.0 0.00 0.05 0.05 57 1011.3
20260506033640 68 172 3.0 10.0 0.00 0.05 0.05 57 1011.2
20260506033137 68 136 4.0 6.0 0.00 0.05 0.05 56 1011.0
20260506032634 68 219 2.0 6.0 0.00 0.05 0.05 55 1011.2
20260506032131 68 127 4.0 6.0 0.00 0.05 0.05 54 1011.3
20260506031628 69 153 2.0 4.0 0.00 0.05 0.05 53 1010.9
20260506031125 69 159 4.0 7.0 0.00 0.05 0.05 52 1011.1
20260506030624 69 172 3.0 6.0 0.00 0.05 0.05 52 1011.1
20260506030120 69 157 4.0 5.0 0.00 0.05 0.05 51 1011.2
20260506025617 69 165 5.0 9.0 0.00 0.05 0.05 50 1010.9
20260506025113 70 172 2.0 4.0 0.00 0.05 0.05 49 1011.0
20260506024611 70 179 5.0 12.0 0.00 0.05 0.05 48 1011.0
20260506024107 70 128 4.0 8.0 0.00 0.05 0.05 47 1011.1
20260506023603 70 141 4.0 7.0 0.00 0.05 0.05 47 1011.2
20260506023101 71 117 2.0 6.0 0.00 0.05 0.05 46 1011.1
20260506022558 71 186 3.0 6.0 0.00 0.05 0.05 45 1011.1
20260506022055 71 136 4.0 7.0 0.00 0.05 0.05 45 1011.1
20260506021553 71 147 4.0 7.0 0.00 0.05 0.05 45 1010.9
20260506021050 71 192 2.0 9.0 0.00 0.05 0.05 44 1010.9
20260506020547 72 158 6.0 11.0 0.00 0.05 0.05 44 1010.8
20260506020044 72 124 3.0 6.0 0.00 0.05 0.05 44 1010.9
20260506015542 72 201 6.0 14.0 0.00 0.05 0.05 44 1011.0
20260506015039 72 169 5.0 15.0 0.00 0.05 0.05 43 1010.9
20260506014536 72 156 3.0 11.0 0.00 0.05 0.05 43 1010.7
20260506014032 72 149 2.0 11.0 0.00 0.05 0.05 43 1010.8
20260506013531 72 117 2.0 11.0 0.00 0.05 0.05 43 1010.8
20260506013026 72 146 4.0 8.0 0.00 0.05 0.05 43 1010.5
20260506012523 72 98 0.0 11.0 0.00 0.05 0.05 43 1010.7
20260506012020 73 113 1.0 4.0 0.00 0.05 0.05 43 1010.6
20260506011518 73 154 3.0 5.0 0.00 0.05 0.05 44 1010.5
20260506011014 73 121 3.0 7.0 0.00 0.05 0.05 43 1010.4
20260506010513 73 165 4.0 6.0 0.00 0.05 0.05 43 1010.4
20260506010009 73 193 2.0 13.0 0.00 0.05 0.05 43 1010.4
20260506005507 73 141 5.0 7.0 0.00 0.05 0.05 43 1010.2
20260506005002 73 176 2.0 13.0 0.00 0.05 0.05 43 1010.2
20260506004500 73 129 2.0 14.0 0.00 0.05 0.05 43 1010.4
20260506003955 73 251 1.0 6.0 0.00 0.05 0.05 42 1010.0
20260506003452 74 89 3.0 12.0 0.00 0.05 0.05 41 1010.0
20260506002948 74 78 5.0 6.0 0.00 0.05 0.05 40 1010.0
20260506002445 74 138 2.0 9.0 0.00 0.05 0.05 40 1009.9
20260506001940 74 117 3.0 5.0 0.00 0.05 0.05 39 1009.9
20260506001437 74 144 5.0 7.0 0.00 0.05 0.05 38 1009.8
20260506000935 75 140 4.0 5.0 0.00 0.05 0.05 37 1009.7
20260506000432 75 175 4.0 10.0 0.00 0.05 0.05 37 1009.9
20260505235929 75 142 5.0 8.0 0.00 0.05 0.05 37 1009.5
20260505235427 75 245 4.0 7.0 0.00 0.05 0.05 37 1009.5
20260505234923 75 145 3.0 5.0 0.00 0.05 0.05 36 1009.8
20260505234421 75 190 4.0 6.0 0.00 0.05 0.05 36 1009.5
20260505233917 76 201 4.0 14.0 0.00 0.05 0.05 36 1009.7
20260505233415 76 151 2.0 7.0 0.00 0.05 0.05 35 1009.8
20260505232913 76 167 9.0 13.0 0.00 0.05 0.05 35 1009.4
20260505232410 77 180 2.0 9.0 0.00 0.05 0.05 34 1009.5
20260505231907 77 172 6.0 11.0 0.00 0.05 0.05 34 1009.5
20260505231405 77 181 2.0 12.0 0.00 0.05 0.05 33 1009.3
20260505230903 77 216 9.0 9.0 0.00 0.05 0.05 33 1009.5
20260505230400 77 143 5.0 11.0 0.00 0.05 0.05 33 1009.5
20260505225856 77 150 5.0 5.0 0.00 0.05 0.05 33 1009.4
20260505225354 78 257 5.0 14.0 0.00 0.05 0.05 32 1009.2
20260505224849 78 53 2.0 6.0 0.00 0.05 0.05 31 1009.4
20260505224346 78 236 2.0 11.0 0.00 0.05 0.05 31 1009.4
20260505223843 78 150 12.0 17.0 0.00 0.05 0.05 31 1009.8
20260505223340 78 172 2.0 15.0 0.00 0.05 0.05 31 1009.2
20260505222836 78 163 5.0 12.0 0.00 0.05 0.05 32 1009.3
20260505222332 78 324 2.0 11.0 0.00 0.05 0.05 32 1009.1
20260505221830 78 164 10.0 10.0 0.00 0.05 0.05 32 1009.2
20260505221326 78 181 2.0 12.0 0.00 0.05 0.05 31 1009.3
20260505220823 78 214 4.0 9.0 0.00 0.05 0.05 31 1009.1
20260505220320 78 118 7.0 9.0 0.00 0.05 0.05 31 1009.2
20260505215818 79 298 2.0 9.0 0.00 0.05 0.05 32 1009.2
20260505215316 78 165 7.0 9.0 0.00 0.05 0.05 31 1009.2
20260505214814 78 156 4.0 6.0 0.00 0.05 0.05 32 1009.4
20260505214311 78 177 9.0 11.0 0.00 0.05 0.05 31 1009.3
20260505213808 79 299 1.0 9.0 0.00 0.05 0.05 32 1009.3
20260505213306 78 144 12.0 13.0 0.00 0.05 0.05 32 1009.1
20260505212801 79 157 10.0 15.0 0.00 0.05 0.05 30 1009.3
20260505212259 79 183 7.0 17.0 0.00 0.05 0.05 30 1009.1
20260505211755 79 256 7.0 11.0 0.00 0.05 0.05 30 1009.0
20260505211253 79 240 8.0 11.0 0.00 0.05 0.05 30 1008.6
20260505210749 79 210 2.0 12.0 0.00 0.05 0.05 31 1008.9
20260505210246 79 167 6.0 10.0 0.00 0.05 0.05 30 1008.9
20260505205743 80 229 7.0 11.0 0.00 0.05 0.05 31 1009.1
20260505205242 80 240 2.0 19.0 0.00 0.05 0.05 30 1008.8
20260505204737 80 248 5.0 16.0 0.00 0.05 0.05 30 1009.0
20260505204236 80 164 8.0 17.0 0.00 0.05 0.05 29 1009.1
20260505203732 79 175 10.0 14.0 0.00 0.05 0.05 29 1008.9
20260505203229 80 145 12.0 20.0 0.00 0.05 0.05 28 1009.1
20260505202725 80 179 9.0 21.0 0.00 0.05 0.05 28 1009.1
20260505202221 80 256 7.0 12.0 0.00 0.05 0.05 28 1009.1
20260505201718 79 177 3.0 11.0 0.00 0.05 0.05 29 1008.9
20260505201216 79 168 8.0 17.0 0.00 0.05 0.05 28 1009.1
20260505200714 79 189 4.0 14.0 0.00 0.05 0.05 28 1009.1
20260505200211 80 194 6.0 16.0 0.00 0.05 0.05 27 1009.2
20260505195706 81 197 12.0 13.0 0.00 0.05 0.05 27 1009.2
20260505195204 81 242 3.0 15.0 0.00 0.05 0.05 28 1009.0
20260505194701 80 180 8.0 17.0 0.00 0.05 0.05 26 1008.9
20260505194157 81 176 7.0 22.0 0.00 0.05 0.05 27 1009.2
20260505193653 80 282 8.0 17.0 0.00 0.05 0.05 27 1009.1
20260505193151 80 176 13.0 15.0 0.00 0.05 0.05 26 1009.1
20260505192649 80 172 23.0 27.0 0.00 0.05 0.05 26 1009.4
20260505192146 80 164 10.0 18.0 0.00 0.05 0.05 26 1009.0
20260505191645 80 169 10.0 16.0 0.00 0.05 0.05 27 1009.3
20260505191143 81 161 13.0 17.0 0.00 0.05 0.05 27 1009.7
20260505190638 80 150 11.0 13.0 0.00 0.05 0.05 28 1009.3
20260505190138 80 166 7.0 13.0 0.00 0.05 0.05 28 1009.4
20260505185635 80 122 9.0 19.0 0.00 0.05 0.05 27 1009.5
20260505185131 81 249 6.0 23.0 0.00 0.05 0.05 27 1009.7
20260505184628 81 130 6.0 19.0 0.00 0.05 0.05 28 1009.7
20260505184125 81 51 4.0 8.0 0.00 0.05 0.05 29 1009.9
20260505183622 80 193 11.0 24.0 0.00 0.05 0.05 28 1009.5
20260505183119 81 174 22.0 25.0 0.00 0.05 0.05 28 1009.5
20260505182615 80 184 11.0 24.0 0.00 0.05 0.05 30 1009.8
20260505182112 81 173 8.0 19.0 0.00 0.05 0.05 30 1009.9
20260505181609 82 158 5.0 12.0 0.00 0.05 0.05 30 1009.9
20260505181106 80 203 2.0 7.0 0.00 0.05 0.05 31 1010.0
20260505180602 81 131 8.0 15.0 0.00 0.05 0.05 30 1009.9
20260505180100 80 205 6.0 11.0 0.00 0.05 0.05 32 1010.1
20260505175555 80 164 10.0 15.0 0.00 0.05 0.05 32 1010.3
20260505175052 80 219 9.0 17.0 0.00 0.05 0.05 34 1010.2
20260505174549 80 186 11.0 23.0 0.00 0.05 0.05 34 1010.2
20260505174045 80 182 11.0 12.0 0.00 0.05 0.05 35 1010.2
20260505173542 80 112 9.0 20.0 0.00 0.05 0.05 34 1010.3
20260505173039 81 188 8.0 13.0 0.00 0.05 0.05 33 1010.3